Powrót do katalogu

DELTA 1 DEB

AktywnySSO
NORAD 12172·DEBRIS·🇺🇸 United States

Wystrzelony Mar 5, 1978 z Vandenberg Space Force Base

Loading…

Następne Przeloty (najbliższe 24 godziny)

TLE

ŚwieżeSource: Space-Track

Epoka: Sep 14, 2026, 08:43 UTC

1 12172U 78026M   26257.36335508  .00000163  00000-0  85899-4 0  9994
2 12172  98.7731 288.6929 0058180 354.4485  18.4725 14.25986972364686

Śledź DELTA 1 DEB w czasie rzeczywistym z AllMySat

Download on the App Store